Wind_Speed
13 12 11 10 10 10 11 11 9 8 7 7 10 13 13 11 9 8 7 7 8 8 7 7 7 7 7 8 9 10 11 11 12 12 12 12 12 12 12 12 12 12 11 10 9 8 8 7 6
14 13 13 12 11 12 13 12 10 9 9 9 12 14 13 12 11 9 8 9 9 9 8 8 8 8 8 9 10 11 12 13 13 14 14 14 14 13 13 13 13 13 12 11 10 10 9 9 8
15 14 14 13 14 15 14 12 11 12 12 12 14 14 15 13 11 10 9 9 9 9 9 9 9 10 10 10 11 12 13 14 14 15 15 15 15 15 15 15 14 14 13 13 12 12 11 11 10
17 15 15 15 16 16 16 14 13 14 14 15 15 16 15 13 11 10 9 9 9 10 10 10 10 11 12 12 12 13 13 14 15 16 17 17 17 17 17 16 15 15 15 14 14 13 13 12 12
18 17 16 16 17 17 17 16 15 16 17 18 17 17 16 13 10 10 9 10 10 10 10 11 12 12 12 13 13 14 15 15 16 17 18 18 18 18 18 18 17 17 16 16 15 15 14 14 13
19 18 18 19 19 19 18 17 17 18 18 18 18 16 16 14 12 10 10 10 10 11 11 12 12 13 13 14 15 15 16 16 17 18 19 19 19 20 20 19 19 18 18 18 17 17 16 16 15
19 19 20 21 21 20 19 18 17 19 19 18 18 18 15 12 11 10 11 11 11 11 12 12 13 13 14 15 16 16 17 17 18 19 19 20 20 20 21 20 20 20 19 19 19 18 18 17 17
19 20 21 22 22 21 20 19 19 20 20 19 18 17 16 13 12 10 11 11 11 12 13 13 14 14 15 15 16 17 18 18 19 20 20 20 21 21 22 22 21 21 21 20 20 20 19 19 19
20 21 22 23 24 23 20 21 22 21 20 19 18 17 16 14 13 10 10 11 11 12 14 15 15 15 16 16 17 18 19 19 20 20 20 21 21 22 22 22 22 22 22 22 22 21 21 20 20
22 22 24 25 25 23 21 21 22 21 20 20 17 16 15 14 13 12 12 13 13 13 15 16 16 17 17 18 18 19 19 20 20 21 21 22 22 22 22 22 23 23 23 23 22 22 21 21 21
23 25 26 27 26 24 22 22 22 22 20 19 19 18 17 15 14 14 14 15 15 16 16 17 17 18 18 18 19 19 20 20 20 21 22 22 22 23 23 23 23 23 24 23 23 23 22 22 22
25 27 27 26 25 24 23 22 23 21 20 20 19 18 17 16 15 15 15 16 16 16 17 18 17 17 18 18 18 19 19 20 20 21 22 23 23 23 24 25 24 24 24 23 23 24 23 22 22
26 27 28 27 26 25 24 24 24 23 21 20 18 17 16 15 16 16 16 17 18 18 18 18 18 18 19 19 19 20 21 21 21 22 22 23 24 24 23 24 24 24 25 25 24 24 24 23 23
27 28 28 27 25 24 24 24 24 23 22 20 17 16 16 16 16 17 18 19 18 18 19 19 19 20 20 21 21 21 22 22 22 22 23 24 25 25 25 24 23 24 24 24 23 23 23 23 23
28 28 27 25 24 23 22 21 21 20 20 19 16 16 15 16 17 18 19 18 18 19 20 20 21 21 21 22 22 23 23 23 24 24 24 25 25 25 25 25 24 23 23 23 23 24 24 23 23
27 25 25 22 21 19 19 20 19 18 18 17 17 16 16 17 17 18 19 20 20 20 21 21 22 22 23 23 23 24 24 24 25 25 25 26 26 26 25 25 24 24 23 23 23 23 24 23 23
23 22 20 18 17 17 16 17 17 17 16 16 16 16 17 18 17 18 20 20 21 21 22 22 22 23 23 24 24 25 25 26 26 27 27 27 26 27 26 25 25 24 25 24 23 23 23 24 24
19 18 17 15 15 16 15 14 15 16 16 15 16 16 17 18 18 19 20 20 21 21 22 22 23 23 23 24 25 25 26 27 27 27 28 28 28 27 28 27 26 25 25 25 25 24 24 25 24
18 18 17 15 13 14 14 14 15 16 17 17 17 18 18 18 19 19 20 20 21 21 22 23 23 23 24 24 25 25 26 27 27 28 28 28 28 28 27 27 26 25 24 24 25 25 24 25 25
18 17 16 15 15 15 15 15 16 17 18 19 18 19 18 19 19 20 20 21 22 23 23 23 23 24 24 24 24 26 26 27 28 28 28 27 27 27 27 27 27 26 25 25 26 26 25 25 25
18 17 15 15 15 16 17 17 16 16 18 19 19 18 19 21 20 20 21 21 22 23 24 24 25 25 24 24 25 26 27 28 28 28 27 27 26 27 27 27 27 27 26 26 26 26 26 26 25
18 15 15 15 15 16 17 18 17 17 18 19 20 20 20 21 21 21 21 22 23 23 24 24 25 25 25 25 25 26 27 27 27 26 26 25 25 25 26 28 28 28 27 27 27 27 27 26 25
17 16 16 16 16 17 18 19 19 20 20 21 21 21 21 21 21 21 21 22 23 24 24 25 25 26 26 26 26 26 26 27 25 25 25 26 25 26 26 26 27 27 27 27 26 27 27 27 27
17 18 18 18 18 20 19 21 21 21 21 22 23 23 23 23 23 22 21 21 23 24 25 26 26 26 26 27 27 27 27 26 25 25 25 25 25 25 25 25 25 25 25 25 25 26 27 27 27
19 20 20 20 20 21 21 23 23 22 22 22 22 22 22 23 23 22 21 21 22 24 25 25 25 25 26 27 26 26 26 26 26 26 25 25 24 24 23 23 23 22 22 23 24 24 25 26 26
20 20 20 21 21 21 22 24 23 22 22 22 22 24 24 23 23 22 22 23 24 24 24 24 24 25 26 25 26 25 25 25 25 25 24 24 23 23 23 23 22 22 22 23 23 23 23 24 25
19 20 19 20 20 21 22 22 21 21 22 23 23 24 23 22 21 21 22 24 24 24 23 23 24 25 25 24 25 25 24 24 24 23 23 23 23 23 23 22 22 22 22 22 22 22 22 23 24
19 19 20 21 21 22 22 21 21 20 22 23 22 22 22 21 21 21 23 24 22 22 22 23 24 24 24 24 24 25 24 24 23 23 23 22 23 23 23 23 23 22 22 22 22 22 22 22 22
20 20 20 21 21 21 22 20 20 21 21 21 21 21 21 21 20 21 21 21 21 21 22 23 23 23 23 23 24 24 23 23 22 22 22 22 22 22 22 22 22 22 22 21 21 21 21 20 20
19 20 19 21 20 21 21 21 19 21 20 21 21 20 19 19 19 19 20 21 21 21 22 22 22 22 22 22 22 22 21 21 22 21 22 22 22 22 21 20 20 20 20 20 20 20 20 19 19
Wind_Direction
226 222 214 209 209 211 215 220 223 232 252 278 292 301 305 304 306 306 305 306 311 312 313 310 303 300 296 291 284 280 279 277 276 278 279 281 284 284 284 286 286 286 286 286 285 284 285 286 286
226 221 214 209 208 211 218 225 228 237 249 269 282 288 294 296 295 297 297 300 304 307 306 303 302 297 292 290 285 280 278 277 275 275 275 277 278 279 279 281 283 283 283 282 280 279 279 279 279
225 220 214 207 206 212 218 228 239 246 253 265 274 280 286 286 284 288 293 297 301 304 303 301 299 295 291 287 284 280 276 274 274 273 273 273 274 275 275 277 277 278 279 278 276 275 276 276 277
226 220 213 207 206 215 222 228 238 251 259 268 274 279 281 278 275 281 287 295 301 303 301 298 297 294 289 285 282 279 276 274 274 273 271 272 272 272 272 273 273 274 274 273 273 272 272 274 276
224 217 210 206 209 217 226 230 238 252 262 268 273 280 279 273 267 272 282 290 295 298 298 296 296 293 288 285 284 280 276 275 274 273 270 270 269 269 270 270 270 271 270 270 271 270 271 272 274
221 216 208 204 210 218 228 235 244 254 263 268 272 281 281 275 274 277 283 287 289 293 295 293 292 290 286 284 283 280 277 275 274 274 271 269 267 267 267 267 268 269 268 267 268 269 269 271 272
217 211 204 206 212 220 230 240 251 261 264 271 278 282 277 275 276 278 278 284 288 291 292 292 290 288 286 285 283 279 278 277 276 274 272 269 267 267 267 266 265 266 267 265 265 266 267 269 270
211 207 202 206 212 220 227 237 247 256 263 271 275 278 275 275 272 273 277 285 286 288 289 291 290 289 287 286 285 280 278 276 277 276 272 270 269 270 268 265 266 265 264 264 263 263 265 267 268
206 202 202 204 211 220 227 239 249 256 263 269 272 275 273 278 281 281 278 282 284 288 289 289 291 288 286 285 284 282 280 279 278 277 274 272 273 271 269 266 266 266 264 263 262 263 265 267 268
201 198 199 204 213 223 229 240 250 257 264 268 269 272 272 278 284 286 287 287 289 289 290 292 292 292 288 286 282 283 283 281 280 278 276 274 275 273 270 268 268 265 265 265 263 263 265 265 266
196 197 200 206 216 223 229 240 249 256 262 265 269 273 274 275 279 285 287 287 289 287 288 291 294 293 289 286 285 285 282 281 281 280 278 276 276 274 271 271 269 265 266 266 263 262 264 266 267
194 198 202 206 217 223 232 242 249 258 261 264 268 269 272 275 282 282 283 286 288 287 290 289 294 294 293 289 287 286 284 285 283 279 278 278 278 276 274 271 270 267 266 266 263 262 263 265 266
197 200 205 209 215 223 233 243 251 256 259 263 267 268 274 277 282 284 285 287 286 289 293 293 295 295 295 292 292 289 287 286 284 280 277 278 278 277 276 273 271 268 265 265 263 260 261 261 264
199 204 209 212 217 226 234 242 249 253 257 259 262 268 272 277 284 287 287 289 288 288 291 293 294 297 295 295 294 290 287 285 284 283 280 279 280 279 277 273 270 268 265 263 262 259 260 263 265
204 208 210 214 220 227 233 239 246 248 252 257 261 266 273 281 285 287 289 288 288 288 289 291 294 296 296 294 294 292 288 284 283 283 284 283 282 281 278 274 271 270 266 263 260 258 258 262 263
207 211 213 215 219 227 235 241 248 251 256 261 266 267 278 284 286 288 291 289 289 286 288 291 294 296 297 296 293 291 290 287 285 284 283 283 283 282 281 278 272 271 268 264 261 260 259 260 261
210 211 211 213 219 229 236 240 246 253 260 264 267 273 280 282 284 287 290 292 289 288 289 293 294 295 295 295 294 292 290 288 287 285 284 283 282 280 279 278 275 272 267 264 262 261 260 260 260
206 206 208 213 222 231 240 243 249 260 266 268 272 275 281 281 284 289 291 292 290 288 291 294 294 293 293 293 294 293 292 291 289 287 284 283 281 278 277 275 273 270 266 263 261 261 260 260 260
200 201 206 213 222 235 243 249 257 265 270 276 276 277 283 284 287 290 292 292 290 289 290 292 293 293 293 294 295 295 294 292 290 289 285 282 280 279 276 274 272 270 268 265 261 260 260 260 260
199 202 209 219 223 233 245 257 266 271 275 278 281 279 278 284 287 290 291 292 292 291 289 290 293 294 294 295 296 295 294 293 291 288 284 280 278 276 275 274 269 269 270 269 264 261 261 261 260
201 206 212 220 225 236 249 261 269 272 273 276 278 278 280 285 285 286 288 291 292 291 290 290 292 292 293 295 296 294 294 293 290 287 284 280 276 273 274 274 272 269 271 270 266 261 260 261 261
204 208 211 220 233 241 251 262 265 269 275 280 283 282 286 286 283 283 286 289 291 291 290 291 292 293 294 294 295 295 295 294 291 287 285 284 280 276 274 274 272 270 269 268 265 262 261 261 262
205 207 215 224 231 240 250 261 265 269 276 282 285 286 287 290 286 284 284 287 289 291 291 291 293 295 295 295 296 297 298 295 293 289 285 283 281 278 276 275 272 270 268 266 265 263 261 260 261
208 211 218 227 235 243 252 262 268 272 280 283 283 285 286 292 293 289 284 285 288 290 290 291 294 295 295 295 296 296 297 294 292 289 285 283 283 281 279 277 274 271 269 267 267 265 263 262 262
214 215 222 231 240 249 255 263 270 276 282 283 284 287 286 290 291 290 287 289 291 290 292 293 296 296 296 297 296 295 296 295 292 289 286 284 282 280 278 276 274 273 271 269 269 268 266 264 263
219 221 230 238 246 252 256 263 269 276 282 283 285 286 287 289 291 293 292 291 294 292 293 295 296 297 298 298 297 296 296 296 294 290 286 283 281 279 277 275 274 274 272 270 269 269 267 265 263
224 226 233 243 249 255 259 266 271 275 283 287 289 287 291 288 290 293 292 293 296 295 296 297 297 298 299 300 299 298 296 296 295 292 290 286 281 278 277 275 274 274 274 271 270 270 268 266 265
229 234 240 244 251 257 262 266 275 279 284 288 285 287 292 289 289 292 294 294 295 296 298 298 298 299 300 300 299 299 297 295 294 292 291 288 284 280 278 275 273 273 273 271 269 268 267 267 266
228 233 241 247 254 262 266 273 281 286 293 296 290 293 291 293 291 292 296 296 296 298 300 301 301 302 301 300 299 299 298 297 294 292 291 289 287 284 279 277 275 274 272 271 269 268 266 266 266
234 236 242 246 253 261 270 278 285 290 296 301 301 296 293 292 293 294 296 297 299 300 301 302 304 305 303 301 300 300 298 298 296 293 293 291 289 286 282 279 276 275 273 271 269 265 263 263 263
Height
5915 5916 5918 5920 5921 5921 5920 5921 5921 5921 5921 5922 5922 5923 5923 5924 5925 5927 5924 5922 5922 5921 5921 5920 5920 5920 5919 5919 5919 5918 5918 5918 5918 5917 5917 5917 5916 5915 5915 5914 5913 5912 5911 5910 5910 5909 5908 5907 5906
5913 5915 5917 5918 5919 5918 5919 5919 5920 5920 5921 5922 5922 5922 5922 5923 5923 5923 5922 5921 5921 5920 5920 5919 5919 5918 5918 5918 5917 5917 5917 5916 5916 5916 5915 5915 5914 5914 5913 5912 5912 5911 5910 5909 5908 5907 5906 5905 5904
5911 5912 5915 5916 5916 5917 5917 5917 5918 5918 5920 5921 5921 5921 5921 5921 5921 5921 5921 5920 5919 5919 5918 5918 5917 5917 5916 5916 5915 5915 5915 5914 5914 5914 5913 5913 5913 5912 5911 5911 5910 5909 5908 5907 5906 5906 5905 5904 5903
5908 5911 5913 5915 5914 5914 5915 5915 5915 5915 5917 5918 5919 5920 5920 5920 5920 5919 5919 5918 5918 5917 5917 5916 5915 5915 5914 5914 5913 5913 5913 5912 5912 5911 5911 5910 5910 5910 5909 5908 5908 5907 5906 5905 5905 5904 5903 5902 5902
5905 5908 5910 5911 5911 5912 5912 5913 5913 5913 5914 5915 5917 5917 5918 5918 5918 5917 5916 5916 5916 5915 5915 5914 5913 5913 5912 5911 5911 5911 5910 5910 5909 5908 5908 5908 5907 5907 5906 5906 5905 5905 5904 5903 5903 5902 5901 5900 5899
5902 5905 5907 5908 5908 5909 5910 5910 5911 5912 5912 5913 5915 5916 5916 5916 5916 5915 5914 5914 5914 5913 5912 5912 5911 5910 5909 5909 5908 5908 5907 5907 5906 5905 5905 5904 5904 5904 5903 5903 5902 5902 5901 5901 5900 5899 5899 5898 5897
5900 5902 5904 5905 5905 5906 5907 5908 5909 5909 5910 5912 5913 5913 5913 5914 5914 5913 5912 5912 5911 5911 5910 5909 5909 5908 5907 5906 5905 5905 5904 5903 5903 5902 5901 5901 5900 5900 5899 5899 5899 5898 5898 5897 5897 5896 5895 5895 5894
5895 5899 5901 5902 5903 5903 5904 5905 5906 5906 5908 5910 5911 5911 5910 5911 5910 5910 5909 5909 5909 5908 5908 5907 5906 5905 5904 5903 5902 5901 5900 5900 5899 5898 5897 5897 5896 5896 5895 5895 5895 5894 5894 5893 5893 5892 5892 5891 5890
5892 5897 5897 5898 5900 5900 5901 5903 5904 5905 5906 5907 5908 5908 5908 5908 5908 5907 5907 5906 5906 5905 5905 5904 5903 5902 5901 5900 5898 5898 5897 5896 5895 5894 5893 5893 5892 5892 5891 5891 5891 5890 5890 5889 5889 5888 5888 5887 5886
5889 5892 5894 5895 5896 5897 5898 5900 5901 5902 5904 5904 5905 5905 5905 5904 5905 5905 5904 5904 5903 5903 5901 5900 5899 5898 5897 5896 5895 5894 5893 5892 5891 5890 5889 5889 5888 5887 5887 5886 5886 5885 5885 5885 5884 5884 5883 5883 5883
5885 5888 5890 5891 5892 5893 5895 5897 5899 5900 5901 5902 5902 5902 5902 5902 5902 5902 5901 5900 5900 5899 5898 5897 5896 5895 5893 5892 5891 5890 5889 5888 5887 5886 5885 5884 5883 5883 5882 5882 5881 5880 5880 5880 5880 5879 5879 5879 5878
5881 5884 5886 5888 5889 5891 5892 5894 5896 5897 5898 5899 5899 5898 5899 5899 5899 5898 5898 5897 5896 5895 5894 5893 5892 5891 5889 5889 5887 5886 5885 5884 5882 5881 5880 5879 5878 5877 5877 5876 5876 5875 5875 5875 5875 5874 5874 5874 5874
5877 5881 5883 5885 5886 5888 5889 5891 5892 5893 5895 5895 5896 5895 5895 5895 5895 5895 5894 5893 5892 5892 5890 5889 5888 5887 5886 5884 5883 5882 5880 5879 5878 5876 5875 5874 5873 5872 5871 5870 5870 5869 5869 5869 5869 5869 5869 5869 5869
5874 5877 5879 5882 5884 5885 5887 5888 5890 5890 5891 5892 5893 5893 5893 5892 5892 5891 5890 5889 5887 5887 5886 5885 5884 5883 5881 5880 5878 5876 5875 5874 5873 5871 5870 5869 5868 5867 5866 5865 5864 5864 5864 5864 5864 5863 5864 5864 5863
5870 5874 5877 5879 5881 5883 5885 5886 5886 5887 5888 5889 5890 5889 5889 5889 5888 5887 5886 5884 5883 5882 5881 5881 5880 5879 5877 5875 5873 5872 5870 5869 5867 5866 5864 5863 5862 5861 5860 5859 5858 5858 5858 5858 5858 5858 5858 5858 5858
5868 5871 5874 5877 5878 5880 5883 5883 5883 5884 5885 5885 5885 5885 5885 5885 5884 5883 5882 5880 5879 5878 5877 5876 5875 5873 5872 5870 5868 5866 5864 5863 5861 5860 5859 5857 5856 5855 5854 5853 5853 5853 5852 5852 5852 5852 5852 5852 5853
5866 5869 5872 5874 5875 5877 5879 5879 5880 5881 5881 5881 5881 5881 5881 5880 5880 5879 5879 5877 5876 5874 5873 5872 5870 5868 5867 5865 5863 5861 5859 5857 5855 5854 5852 5851 5850 5849 5848 5847 5847 5847 5846 5846 5846 5846 5846 5846 5846
5865 5867 5869 5871 5872 5874 5875 5876 5877 5877 5878 5878 5878 5878 5877 5877 5876 5875 5874 5873 5872 5870 5869 5867 5865 5863 5862 5860 5857 5855 5853 5851 5849 5847 5845 5844 5843 5842 5842 5841 5840 5840 5840 5839 5840 5840 5840 5840 5840
5862 5864 5866 5868 5869 5870 5872 5873 5873 5874 5874 5875 5874 5874 5874 5873 5872 5871 5870 5869 5867 5865 5864 5862 5860 5858 5856 5854 5852 5849 5847 5844 5842 5840 5839 5837 5836 5835 5835 5834 5833 5833 5833 5833 5833 5833 5833 5833 5834
5858 5861 5863 5864 5866 5867 5868 5869 5870 5870 5870 5870 5870 5870 5870 5869 5867 5866 5866 5864 5862 5860 5859 5857 5855 5853 5851 5848 5846 5843 5840 5838 5836 5834 5831 5830 5829 5828 5827 5826 5826 5827 5826 5826 5826 5826 5826 5827 5827
5856 5858 5860 5861 5862 5863 5865 5866 5866 5867 5866 5866 5866 5866 5866 5864 5863 5862 5861 5859 5857 5855 5853 5851 5849 5847 5845 5842 5840 5837 5834 5831 5829 5827 5825 5823 5822 5821 5820 5819 5819 5819 5819 5819 5819 5819 5819 5820 5820
5853 5855 5857 5858 5860 5860 5862 5862 5863 5862 5862 5861 5861 5861 5860 5859 5858 5856 5855 5854 5852 5850 5848 5845 5843 5841 5838 5836 5833 5831 5828 5825 5822 5820 5818 5816 5815 5814 5813 5812 5812 5812 5812 5812 5811 5812 5812 5812 5812
5851 5853 5854 5855 5856 5858 5858 5858 5859 5858 5858 5857 5856 5856 5855 5854 5851 5850 5849 5848 5846 5844 5842 5840 5837 5834 5832 5829 5827 5824 5821 5818 5815 5813 5811 5810 5808 5807 5805 5805 5804 5804 5804 5804 5804 5804 5804 5805 5805
5849 5850 5851 5852 5853 5854 5855 5855 5855 5854 5854 5853 5852 5851 5850 5849 5847 5845 5843 5842 5840 5838 5836 5833 5831 5828 5826 5823 5820 5817 5814 5811 5809 5807 5805 5803 5801 5800 5798 5797 5797 5796 5796 5796 5796 5796 5796 5797 5797
5845 5847 5849 5849 5850 5851 5851 5850 5851 5850 5849 5848 5847 5846 5845 5844 5842 5839 5837 5836 5834 5832 5830 5827 5825 5822 5819 5816 5813 5810 5807 5804 5802 5800 5798 5796 5794 5793 5791 5791 5790 5789 5789 5789 5789 5789 5789 5789 5789
5842 5844 5846 5846 5847 5848 5847 5846 5847 5846 5844 5843 5842 5841 5839 5838 5836 5834 5832 5830 5828 5825 5823 5821 5818 5816 5813 5809 5806 5803 5800 5797 5795 5792 5791 5789 5787 5786 5785 5784 5783 5782 5782 5782 5781 5781 5781 5781 5782
5839 5840 5842 5843 5843 5843 5843 5842 5842 5841 5839 5838 5836 5835 5833 5832 5830 5829 5826 5824 5822 5819 5817 5815 5812 5809 5806 5803 5800 5796 5793 5791 5788 5786 5784 5782 5780 5779 5778 5777 5776 5775 5775 5775 5774 5774 5774 5774 5775
5836 5837 5838 5839 5838 5838 5838 5837 5838 5836 5835 5833 5830 5829 5827 5826 5825 5823 5821 5818 5816 5813 5811 5809 5806 5803 5799 5796 5793 5790 5787 5784 5782 5779 5777 5775 5774 5772 5771 5770 5769 5768 5768 5768 5768 5768 5767 5767 5768
5832 5833 5833 5834 5834 5834 5833 5835 5834 5832 5830 5828 5825 5824 5822 5820 5819 5817 5815 5813 5810 5807 5805 5803 5800 5796 5793 5789 5786 5783 5781 5778 5776 5773 5771 5769 5767 5765 5764 5763 5762 5761 5761 5761 5761 5761 5761 5761 5761
5828 5829 5830 5830 5830 5829 5829 5832 5828 5827 5825 5823 5820 5818 5817 5815 5813 5811 5809 5807 5804 5802 5799 5796 5793 5790 5786 5783 5780 5777 5775 5772 5770 5767 5765 5763 5760 5759 5757 5756 5755 5755 5754 5754 5754 5754 5754 5755 5755